Tracking 23731 objects as of 26-Sep-2021
HD Live streaming from Space Station
objects crossing your sky now

STARLINK-1861

Track STARLINK-1861 now!
10-day predictions
STARLINK-1861 is classified as:


NORAD ID: 47148
Int'l Code: 2020-088AC
Perigee: 553.5 km
Apogee: 555.2 km
Inclination: 53.1 °
Period: 95.6 minutes
Semi major axis: 6925 km
RCS: Unknown
Launch date: November 25, 2020
Source: United States (US)
Launch site: AIR FORCE EASTERN TEST RANGE (AFETR)
aabbcc
Your satellite tracking list
Your tracking list is empty




NASA's NSSDC Master Catalog

Two Line Element Set (TLE):
1 47148U 20088AC  21268.63762819  .00001921  00000-0  14782-3 0  9991
2 47148  53.0571  31.2414 0001229 101.0117 259.1010 15.06403001 46892
Source of the keplerian elements: AFSPC